• In Hungary
  • List of Countries
  • For 7 days
  • Water Temperature
  • Satellite Maps
  • Weather Map
  • News
  • Weather Widgets
  • user-avatar
    Login

    Hourly Weather Leicester

    Today, 19 February, Monday

    Time Temperature Precipitation Wind Pressure Humidity
    00:00 +5°C° 0.4 mm 3 mps 756 mmHg 97%
    01:00 +5°C° 0.5 mm 3 mps 756 mmHg 97%
    02:00 +5°C° 0.5 mm 3 mps 756 mmHg 97%
    03:00 +5°C° 0.5 mm 3 mps 756 mmHg 97%
    04:00 +7°C° 0.4 mm 3 mps 755 mmHg 97%
    05:00 +7°C° 0.4 mm 3 mps 755 mmHg 97%
    06:00 +7°C° 0.4 mm 3 mps 755 mmHg 97%
    07:00 +8°C° 0.2 mm 3 mps 755 mmHg 96%
    08:00 +8°C° 0.2 mm 3 mps 755 mmHg 96%
    09:00 +8°C° 0.2 mm 3 mps 755 mmHg 95%
    10:00 +8°C° 0.2 mm 4 mps 755 mmHg 93%
    11:00 +10°C° 0.2 mm 4 mps 755 mmHg 91%
    12:00 +9°C° 0.2 mm 5 mps 755 mmHg 89%
    13:00 +9°C° 0.1 mm 5 mps 755 mmHg 87%
    14:00 +10°C° 0.1 mm 5 mps 755 mmHg 84%
    15:00 +10°C° 0.1 mm 5 mps 755 mmHg 82%
    16:00 +10°C° 0.1 mm 4 mps 755 mmHg 85%
    17:00 +10°C° 0.1 mm 4 mps 755 mmHg 87%
    18:00 +8°C° 0.1 mm 4 mps 756 mmHg 89%
    19:00 +8°C° 0 mm 4 mps 756 mmHg 91%
    20:00 +7°C° 0 mm 4 mps 756 mmHg 92%
    21:00 +7°C° 0 mm 4 mps 756 mmHg 93%
    22:00 +7°C° 0 mm 4 mps 756 mmHg 94%
    23:00 +7°C° 0 mm 4 mps 756 mmHg 94%

    Tomorrow, 20 February, Tuesday

    Time Temperature Precipitation Wind Pressure Humidity
    00:00 +7°C° 0 mm 4 mps 756 mmHg 94%
    01:00 +7°C° 0 mm 4 mps 756 mmHg 94%
    02:00 +7°C° 0 mm 4 mps 756 mmHg 94%
    03:00 +6°C° 0 mm 4 mps 756 mmHg 94%
    04:00 +6°C° 0.1 mm 5 mps 756 mmHg 90%
    05:00 +5°C° 0.1 mm 6 mps 757 mmHg 87%
    06:00 +4°C° 0.1 mm 7 mps 757 mmHg 84%
    07:00 +4°C° 0.1 mm 7 mps 757 mmHg 82%
    08:00 +4°C° 0.1 mm 7 mps 758 mmHg 81%
    09:00 +4°C° 0.1 mm 7 mps 758 mmHg 79%
    10:00 +5°C° 0 mm 8 mps 759 mmHg 77%
    11:00 +5°C° 0 mm 8 mps 759 mmHg 75%
    12:00 +6°C° 0 mm 8 mps 759 mmHg 73%
    13:00 +6°C° 0 mm 8 mps 760 mmHg 75%
    14:00 +5°C° 0 mm 7 mps 760 mmHg 77%
    15:00 +5°C° 0 mm 7 mps 761 mmHg 79%
    16:00 +5°C° 0 mm 6 mps 761 mmHg 81%
    17:00 +5°C° 0 mm 6 mps 762 mmHg 83%
    18:00 +5°C° 0 mm 5 mps 763 mmHg 85%
    19:00 +5°C° 0 mm 4 mps 763 mmHg 86%
    20:00 +5°C° 0 mm 4 mps 764 mmHg 87%
    21:00 +5°C° 0 mm 3 mps 764 mmHg 88%
    22:00 +4°C° 0.1 mm 3 mps 765 mmHg 89%
    23:00 +4°C° 0.1 mm 3 mps 765 mmHg 90%

    Day after tomorrow, 21 February, Wednesday

    Time Temperature Precipitation Wind Pressure Humidity
    00:00 +4°C° 0.1 mm 3 mps 765 mmHg 90%
    01:00 +4°C° 0 mm 3 mps 765 mmHg 91%
    02:00 +4°C° 0 mm 3 mps 765 mmHg 91%
    03:00 +4°C° 0 mm 3 mps 765 mmHg 92%
    04:00 +4°C° 0 mm 3 mps 765 mmHg 92%
    05:00 +3°C° 0 mm 3 mps 765 mmHg 92%
    06:00 +3°C° 0 mm 4 mps 765 mmHg 92%
    07:00 +3°C° 0 mm 4 mps 765 mmHg 91%
    08:00 +4°C° 0 mm 4 mps 765 mmHg 90%
    09:00 +4°C° 0 mm 4 mps 766 mmHg 89%
    10:00 +4°C° 0 mm 4 mps 765 mmHg 86%
    11:00 +5°C° 0 mm 4 mps 765 mmHg 83%
    12:00 +5°C° 0 mm 4 mps 765 mmHg 79%
    13:00 +6°C° 0 mm 4 mps 765 mmHg 77%
    14:00 +6°C° 0 mm 4 mps 765 mmHg 74%
    15:00 +6°C° 0 mm 4 mps 764 mmHg 71%
    16:00 +5°C° 0 mm 4 mps 764 mmHg 75%
    17:00 +4°C° 0 mm 4 mps 764 mmHg 79%
    18:00 +3°C° 0 mm 3 mps 764 mmHg 83%
    19:00 +3°C° 0 mm 3 mps 764 mmHg 85%
    20:00 +2°C° 0 mm 3 mps 764 mmHg 88%
    21:00 +2°C° 0 mm 3 mps 764 mmHg 91%
    22:00 +1°C° 0 mm 3 mps 764 mmHg 91%
    23:00 +1°C° 0 mm 3 mps 764 mmHg 92%

    22 February, Thursday

    Time Temperature Precipitation Wind Pressure Humidity
    00:00 +1°C° 0 mm 3 mps 764 mmHg 93%
    01:00 0°C° 0 mm 3 mps 764 mmHg 93%
    02:00 0°C° 0 mm 3 mps 763 mmHg 94%
    03:00 0°C° 0 mm 3 mps 763 mmHg 94%
    04:00 0°C° 0 mm 3 mps 763 mmHg 94%
    05:00 0°C° 0 mm 3 mps 763 mmHg 94%
    06:00 -1°C° 0 mm 3 mps 763 mmHg 94%
    07:00 0°C° 0 mm 3 mps 763 mmHg 90%
    08:00 +1°C° 0 mm 3 mps 763 mmHg 87%
    09:00 +1°C° 0 mm 4 mps 763 mmHg 83%
    10:00 +3°C° 0 mm 4 mps 763 mmHg 78%
    11:00 +4°C° 0 mm 4 mps 763 mmHg 73%
    12:00 +4°C° 0 mm 4 mps 762 mmHg 67%
    13:00 +4°C° 0 mm 4 mps 762 mmHg 67%
    14:00 +4°C° 0 mm 4 mps 762 mmHg 67%
    15:00 +4°C° 0 mm 4 mps 762 mmHg 67%
    16:00 +3°C° 0 mm 3 mps 762 mmHg 72%
    17:00 +2°C° 0 mm 3 mps 762 mmHg 77%
    18:00 +1°C° 0 mm 3 mps 762 mmHg 82%
    19:00 +1°C° 0 mm 3 mps 762 mmHg 84%
    20:00 0°C° 0 mm 3 mps 762 mmHg 85%
    21:00 0°C° 0 mm 3 mps 762 mmHg 87%
    22:00 0°C° 0 mm 3 mps 762 mmHg 88%
    23:00 -1°C° 0 mm 3 mps 762 mmHg 90%

    23 February, Friday

    Time Temperature Precipitation Wind Pressure Humidity
    00:00 -1°C° 0 mm 2 mps 762 mmHg 91%
    01:00 -1°C° 0 mm 2 mps 762 mmHg 91%
    02:00 -1°C° 0 mm 2 mps 762 mmHg 91%
    03:00 -1°C° 0 mm 2 mps 762 mmHg 91%
    04:00 -2°C° 0 mm 2 mps 762 mmHg 91%
    05:00 -2°C° 0 mm 2 mps 762 mmHg 91%
    06:00 -2°C° 0 mm 2 mps 762 mmHg 91%
    07:00 -1°C° 0 mm 3 mps 762 mmHg 86%
    08:00 0°C° 0 mm 3 mps 762 mmHg 82%
    09:00 +1°C° 0 mm 3 mps 763 mmHg 78%
    10:00 +1°C° 0 mm 4 mps 762 mmHg 72%
    11:00 +3°C° 0 mm 4 mps 762 mmHg 66%
    12:00 +4°C° 0 mm 4 mps 762 mmHg 60%
    13:00 +4°C° 0 mm 4 mps 762 mmHg 60%
    14:00 +4°C° 0 mm 4 mps 762 mmHg 60%
    15:00 +3°C° 0 mm 4 mps 762 mmHg 60%
    16:00 +3°C° 0 mm 4 mps 762 mmHg 65%
    17:00 +1°C° 0 mm 4 mps 762 mmHg 70%
    18:00 +1°C° 0 mm 3 mps 762 mmHg 75%
    19:00 -1°C° 0 mm 4 mps 762 mmHg 77%
    20:00 -1°C° 0 mm 4 mps 763 mmHg 80%
    21:00 -2°C° 0 mm 4 mps 763 mmHg 83%
    22:00 -2°C° 0 mm 4 mps 763 mmHg 82%
    23:00 -1°C° 0 mm 3 mps 763 mmHg 82%

    24 February, Saturday

    Time Temperature Precipitation Wind Pressure Humidity
    00:00 -2°C° 0 mm 3 mps 764 mmHg 81%
    01:00 -1°C° 0 mm 3 mps 764 mmHg 80%
    02:00 -1°C° 0 mm 3 mps 764 mmHg 79%
    03:00 -1°C° 0 mm 3 mps 764 mmHg 78%
    04:00 -1°C° 0 mm 3 mps 764 mmHg 78%
    05:00 -2°C° 0 mm 3 mps 764 mmHg 78%
    06:00 -2°C° 0 mm 3 mps 765 mmHg 78%
    07:00 -2°C° 0 mm 4 mps 765 mmHg 73%
    08:00 -1°C° 0 mm 5 mps 766 mmHg 69%
    09:00 -1°C° 0 mm 5 mps 766 mmHg 65%
    10:00 0°C° 0 mm 5 mps 766 mmHg 62%
    11:00 +1°C° 0 mm 6 mps 766 mmHg 59%
    12:00 +2°C° 0 mm 6 mps 766 mmHg 57%
    13:00 +2°C° 0 mm 6 mps 766 mmHg 57%
    14:00 +2°C° 0 mm 6 mps 766 mmHg 58%
    15:00 +2°C° 0 mm 6 mps 766 mmHg 58%
    16:00 0°C° 0 mm 5 mps 766 mmHg 63%
    17:00 -1°C° 0 mm 5 mps 766 mmHg 67%
    18:00 -2°C° 0 mm 4 mps 767 mmHg 72%
    19:00 -2°C° 0 mm 4 mps 767 mmHg 73%
    20:00 -3°C° 0 mm 4 mps 768 mmHg 74%
    21:00 -3°C° 0 mm 4 mps 768 mmHg 76%
    22:00 -3°C° 0 mm 4 mps 768 mmHg 75%
    23:00 -3°C° 0 mm 4 mps 769 mmHg 75%
    Show more